GW4501 Weather Reports


Display with metric or nautical units.
time (UTC)temp
F
wind
direction
speed
MPH
gust
MPH
rain 1hr
in
rain 24hr
in
rain mn
in
humidity
%
barometer
mb
20260504002415 60 219 0.0 0.0 0.00 0.00 0.00 50 1015.5
20260504001912 60 226 0.0 0.0 0.00 0.00 0.00 50 1015.7
20260504001410 60 224 0.0 0.0 0.00 0.00 0.00 49 1015.6
20260504000906 60 228 0.0 0.0 0.00 0.00 0.00 47 1015.7
20260504000404 61 228 0.0 0.0 0.00 0.00 0.00 47 1015.7
20260503235901 61 228 0.0 0.0 0.00 0.00 0.00 46 1015.8
20260503235359 62 218 0.0 0.0 0.00 0.00 0.00 45 1016.0
20260503234856 62 226 0.0 0.0 0.00 0.00 0.00 44 1016.0
20260503234354 62 224 1.0 1.0 0.00 0.00 0.00 45 1015.9
20260503233851 62 230 0.0 1.0 0.00 0.00 0.00 43 1016.1
20260503233347 62 230 0.0 0.0 0.00 0.00 0.00 46 1016.2
20260503232843 63 226 0.0 0.0 0.00 0.00 0.00 42 1016.1
20260503232341 63 239 3.0 3.0 0.00 0.00 0.00 42 1016.0
20260503231839 63 234 1.0 1.0 0.00 0.00 0.00 43 1016.1
20260503231335 63 235 0.0 0.0 0.00 0.00 0.00 43 1016.1
20260503230831 63 228 0.0 0.0 0.00 0.00 0.00 40 1016.1
20260503230328 63 213 3.0 3.0 0.00 0.00 0.00 39 1016.1
20260503225826 63 235 1.0 1.0 0.00 0.00 0.00 40 1016.1
20260503225322 63 255 2.0 2.0 0.00 0.00 0.00 38 1016.2
20260503224818 63 239 1.0 1.0 0.00 0.00 0.00 38 1016.3
20260503224315 63 243 2.0 3.0 0.00 0.00 0.00 39 1016.4
20260503223813 63 241 1.0 1.0 0.00 0.00 0.00 38 1016.5
20260503223311 64 206 2.0 5.0 0.00 0.00 0.00 37 1016.8
20260503222806 64 206 2.0 2.0 0.00 0.00 0.00 37 1016.8
20260503222305 64 176 2.0 3.0 0.00 0.00 0.00 38 1017.0
20260503221802 64 231 1.0 2.0 0.00 0.00 0.00 36 1016.9
20260503221300 64 242 1.0 2.0 0.00 0.00 0.00 36 1016.9
20260503220756 64 247 3.0 3.0 0.00 0.00 0.00 35 1016.9
20260503220254 64 241 1.0 1.0 0.00 0.00 0.00 41 1017.0
20260503215750 64 207 1.0 1.0 0.00 0.00 0.00 38 1016.9
20260503215247 64 244 1.0 2.0 0.00 0.00 0.00 37 1017.0
20260503214745 64 236 2.0 2.0 0.00 0.00 0.00 38 1017.2
20260503214242 64 221 1.0 2.0 0.00 0.00 0.00 37 1017.1
20260503213740 64 227 2.0 3.0 0.00 0.00 0.00 39 1017.1
20260503213237 65 241 3.0 5.0 0.00 0.00 0.00 38 1017.1
20260503212734 64 209 0.0 1.0 0.00 0.00 0.00 43 1017.1
20260503212232 64 236 2.0 2.0 0.00 0.00 0.00 39 1017.4
20260503211729 64 234 0.0 1.0 0.00 0.00 0.00 41 1017.4
20260503211225 64 228 1.0 1.0 0.00 0.00 0.00 44 1017.4
20260503210720 64 260 1.0 1.0 0.00 0.00 0.00 43 1017.5
20260503210218 65 223 2.0 2.0 0.00 0.00 0.00 42 1017.5
20260503205713 65 231 1.0 1.0 0.00 0.00 0.00 42 1017.5
20260503205210 65 268 1.0 2.0 0.00 0.00 0.00 40 1017.4
20260503204706 64 242 0.0 0.0 0.00 0.00 0.00 42 1017.8
20260503204204 65 282 3.0 5.0 0.00 0.00 0.00 39 1017.8
20260503203701 65 220 2.0 2.0 0.00 0.00 0.00 39 1017.8
20260503203159 65 236 0.0 0.0 0.00 0.00 0.00 43 1018.0
20260503202655 66 235 1.0 2.0 0.00 0.00 0.00 44 1018.1
20260503202154 66 238 1.0 2.0 0.00 0.00 0.00 40 1018.2
20260503201652 66 181 1.0 1.0 0.00 0.00 0.00 40 1018.3
20260503201149 65 226 2.0 3.0 0.00 0.00 0.00 42 1018.4
20260503200644 65 209 1.0 2.0 0.00 0.00 0.00 41 1018.6
20260503200141 65 240 1.0 2.0 0.00 0.00 0.00 40 1018.5
20260503195638 64 237 1.0 1.0 0.00 0.00 0.00 41 1018.5
20260503195135 64 255 1.0 1.0 0.00 0.00 0.00 43 1018.6
20260503194632 63 208 3.0 5.0 0.00 0.00 0.00 43 1018.9
20260503194127 63 215 1.0 2.0 0.00 0.00 0.00 41 1019.0
20260503193624 64 237 2.0 3.0 0.00 0.00 0.00 46 1019.1
20260503193120 63 232 3.0 3.0 0.00 0.00 0.00 44 1019.0
20260503192616 63 231 1.0 3.0 0.00 0.00 0.00 46 1019.1
20260503192112 62 239 1.0 1.0 0.00 0.00 0.00 45 1019.0
20260503191609 64 221 2.0 3.0 0.00 0.00 0.00 43 1019.2
20260503191105 63 255 4.0 5.0 0.00 0.00 0.00 45 1019.2
20260503190603 63 210 1.0 1.0 0.00 0.00 0.00 43 1019.5
20260503190100 63 224 0.0 1.0 0.00 0.00 0.00 47 1019.6
20260503185556 62 237 2.0 3.0 0.00 0.00 0.00 47 1019.5
20260503185056 63 237 2.0 3.0 0.00 0.00 0.00 45 1019.9
20260503184552 62 200 2.0 2.0 0.00 0.00 0.00 47 1019.4
20260503184049 62 245 1.0 1.0 0.00 0.00 0.00 50 1019.6
20260503183545 60 208 0.0 1.0 0.00 0.00 0.00 48 1019.7
20260503183042 61 222 2.0 3.0 0.00 0.00 0.00 46 1019.9
20260503182541 62 254 3.0 3.0 0.00 0.00 0.00 51 1020.1
20260503182039 61 236 2.0 2.0 0.00 0.00 0.00 53 1020.2
20260503181535 60 234 3.0 5.0 0.00 0.00 0.00 53 1020.1
20260503181032 60 260 1.0 2.0 0.00 0.00 0.00 53 1020.2
20260503180529 60 224 2.0 3.0 0.00 0.00 0.00 52 1020.3
20260503180026 60 197 1.0 1.0 0.00 0.00 0.00 53 1020.2
20260503175524 60 235 2.0 3.0 0.00 0.00 0.00 54 1020.3
20260503175020 59 228 1.0 1.0 0.00 0.00 0.00 55 1020.3
20260503174518 59 223 4.0 6.0 0.00 0.00 0.00 54 1020.4
20260503174014 59 233 1.0 2.0 0.00 0.00 0.00 58 1020.3
20260503173509 60 251 1.0 2.0 0.00 0.00 0.00 53 1020.5
20260503173006 59 239 1.0 2.0 0.00 0.00 0.00 51 1020.5
20260503172504 58 218 5.0 7.0 0.00 0.00 0.00 55 1020.5
20260503172000 59 222 4.0 6.0 0.00 0.00 0.00 55 1020.5
20260503171456 58 243 2.0 3.0 0.00 0.00 0.00 56 1020.6
20260503170954 59 231 4.0 5.0 0.00 0.00 0.00 54 1020.9
20260503170450 58 241 1.0 2.0 0.00 0.00 0.00 55 1020.6
20260503150843 53 225 3.0 3.0 0.00 0.00 0.00 76 1021.9
20260503150338 53 224 1.0 1.0 0.00 0.00 0.00 75 1021.7
20260503140303 45 208 0.0 1.0 0.00 0.00 0.00 99 1021.7
20260503131232 43 181 0.0 0.0 0.00 0.00 0.00 99 1021.5
20260503130730 42 213 2.0 3.0 0.00 0.00 0.00 99 1021.4
20260503130227 42 217 1.0 1.0 0.00 0.00 0.00 99 1021.5
20260503120153 42 234 1.0 2.0 0.00 0.00 0.00 99 1020.9
20260503110621 43 224 0.0 0.0 0.00 0.00 0.00 99 1020.1
20260503110118 43 215 0.0 0.0 0.00 0.00 0.00 99 1020.1
20260503090508 41 230 0.0 0.0 0.00 0.00 0.00 99 1019.2
20260503081428 42 230 0.0 0.0 0.00 0.00 0.00 99 1019.4
20260503080926 42 230 0.0 0.0 0.00 0.00 0.00 99 1019.6
20260503080422 42 230 0.0 0.0 0.00 0.00 0.00 99 1019.4
20260503072852 41 230 0.0 0.0 0.00 0.00 0.00 99 1019.1
20260503072349 41 233 0.0 0.0 0.00 0.00 0.00 99 1019.1
20260503071846 41 230 0.0 0.0 0.00 0.00 0.00 99 1019.1
20260503071343 41 230 0.0 0.0 0.00 0.00 0.00 99 1019.1
20260503070838 41 228 0.0 0.0 0.00 0.00 0.00 99 1019.1
20260503070332 41 228 0.0 0.0 0.00 0.00 0.00 99 1018.9
20260503060250 42 228 0.0 0.0 0.00 0.00 0.00 99 1018.9
20260503054737 42 228 0.0 0.0 0.00 0.00 0.00 99 1018.8
20260503054234 42 228 0.0 0.0 0.00 0.00 0.00 99 1019.1
20260503053732 42 228 0.0 0.0 0.00 0.00 0.00 99 1019.1
20260503053230 42 228 0.0 0.0 0.00 0.00 0.00 99 1018.9
20260503052726 42 228 0.0 0.0 0.00 0.00 0.00 99 1018.7
20260503052223 43 228 0.0 0.0 0.00 0.00 0.00 99 1018.7
20260503051718 43 228 0.0 0.0 0.00 0.00 0.00 99 1018.5
20260503051216 43 228 0.0 0.0 0.00 0.00 0.00 99 1018.7
20260503050712 43 228 0.0 0.0 0.00 0.00 0.00 99 1018.6
20260503050209 43 228 0.0 0.0 0.00 0.00 0.00 99 1018.8
20260503045706 43 228 0.0 0.0 0.00 0.04 0.04 99 1018.7
20260503045204 43 228 0.0 0.0 0.00 0.04 0.04 99 1018.5
20260503044700 43 228 0.0 0.0 0.00 0.04 0.04 99 1018.7
20260503044157 43 228 0.0 0.0 0.00 0.04 0.04 99 1018.6
20260503043654 43 228 0.0 0.0 0.00 0.04 0.04 99 1018.5
20260503043152 44 228 0.0 0.0 0.00 0.04 0.04 99 1018.6
20260503042647 44 228 0.0 0.0 0.00 0.04 0.04 99 1018.4
20260503042144 44 228 0.0 0.0 0.00 0.04 0.04 99 1018.3
20260503041640 44 228 0.0 0.0 0.00 0.04 0.04 99 1018.4
20260503041138 45 228 0.0 0.0 0.00 0.04 0.04 99 1018.4
20260503040635 45 228 0.0 0.0 0.00 0.04 0.04 99 1018.3
20260503040133 45 229 0.0 0.0 0.00 0.04 0.04 99 1018.2
20260503035629 45 230 0.0 0.0 0.00 0.04 0.04 99 1018.5
20260503035127 45 228 0.0 0.0 0.00 0.04 0.04 99 1018.2
20260503034624 45 228 0.0 0.0 0.00 0.04 0.04 99 1018.2
20260503034121 45 228 0.0 0.0 0.00 0.04 0.04 99 1018.2
20260503033618 45 228 0.0 0.0 0.00 0.04 0.04 99 1018.2
20260503033116 45 228 0.0 0.0 0.00 0.04 0.04 99 1018.3
20260503032614 45 230 0.0 0.0 0.00 0.04 0.04 99 1018.1
20260503032112 45 230 0.0 0.0 0.00 0.04 0.04 99 1018.3
20260503031610 45 230 0.0 0.0 0.00 0.04 0.04 99 1018.2
20260503031107 45 230 0.0 0.0 0.00 0.04 0.04 99 1018.1
20260503030603 45 230 0.0 0.0 0.00 0.04 0.04 99 1018.2
20260503030100 45 230 0.0 0.0 0.00 0.04 0.04 99 1018.1
20260503025556 45 228 0.0 0.0 0.00 0.04 0.04 99 1018.1
20260503025054 46 226 0.0 0.0 0.00 0.04 0.04 99 1018.4
20260503024550 46 226 0.0 0.0 0.00 0.04 0.04 99 1018.4
20260503024048 46 225 0.0 0.0 0.00 0.04 0.04 99 1018.3
20260503023544 46 225 0.0 0.0 0.00 0.04 0.04 99 1018.1
20260503023042 46 222 0.0 0.0 0.00 0.04 0.04 99 1018.1
20260503022537 46 228 0.0 0.0 0.00 0.04 0.04 99 1018.0
20260503022032 46 225 0.0 0.0 0.00 0.04 0.04 99 1017.9
20260503021529 46 241 0.0 0.0 0.00 0.04 0.04 99 1017.9
20260503021026 46 228 0.0 0.0 0.00 0.04 0.04 99 1018.0
20260503020524 46 221 0.0 0.0 0.00 0.04 0.04 99 1018.1
20260503020020 46 261 1.0 1.0 0.00 0.04 0.04 99 1018.1
20260503015517 46 199 0.0 0.0 0.00 0.04 0.04 99 1017.7
20260503015014 46 236 0.0 1.0 0.00 0.04 0.04 98 1017.8
20260503014510 46 264 0.0 0.0 0.00 0.04 0.04 98 1017.8
20260503014008 46 293 2.0 2.0 0.00 0.04 0.04 98 1018.0
20260503013505 46 254 0.0 1.0 0.00 0.04 0.04 98 1017.5
20260503013003 46 263 0.0 0.0 0.00 0.04 0.04 98 1017.6
20260503012500 47 239 0.0 0.0 0.00 0.04 0.04 98 1017.7
20260503011956 47 248 0.0 1.0 0.00 0.04 0.04 98 1017.9
20260503011453 47 262 0.0 0.0 0.00 0.04 0.04 98 1017.7
20260503010950 47 242 0.0 1.0 0.00 0.04 0.04 97 1017.6
20260503010447 47 235 0.0 0.0 0.00 0.04 0.04 97 1017.7
20260503005944 47 237 0.0 0.0 0.00 0.04 0.04 97 1017.4
20260503005441 47 233 0.0 0.0 0.00 0.04 0.04 97 1017.5
20260503004938 47 235 0.0 0.0 0.00 0.04 0.04 97 1017.2
20260503004435 47 247 0.0 0.0 0.00 0.04 0.04 96 1017.3
20260503003932 47 246 0.0 1.0 0.05 0.04 0.04 96 1017.1
20260503003429 48 285 1.0 1.0 0.05 0.04 0.04 96 1017.4
20260503002926 48 239 0.0 0.0 0.00 0.03 0.03 95 1017.5